This demonstration page uses our WeatherBlox Daily Observations layout. Learn more.

Left ArrowRight Arrow

38.88101, -77.10428

Hourly Observations for December 1, 2015

Temp ( °F °C ) Dew Point ( °F °C ) Humidity (%) Winds ( mph kmh ) Pressure ( in mb ) Visibility ( mi km ) Precip ( " mm )
12:52 am 00:52 Cloudy with Light Rain 45 7.2 44 6.7 97 97 N 5 7 30.19 1022 4 6 0.03 0.76
1:00 am 01:00 Cloudy with Light Rain 45 7 45 7 100 100 NNW 7 11 30.18 1022 3 4 N/A
1:52 am 01:52 Cloudy with Light Rain 45 7.2 44 6.7 97 97 NNW 6 9 30.19 1022 3 4 0.02 0.51
1:57 am 01:57 Cloudy with Light Rain 45 7.2 44 6.7 97 97 NNW 6 9 30.18 1022 3 4 0.01 0.25
2:52 am 02:52 Cloudy with Light Rain 46 7.8 45 7.2 96 96 NNW 5 7 30.18 1022 3 4 0.03 0.76
3:52 am 03:52 Cloudy with Light Rain 45 7.2 44 6.7 97 97 NNW 8 13 30.16 1022 3 4 0.02 0.51
4:49 am 04:49 Cloudy with Light Rain 45 7 43 6 93 93 NNW 7 11 30.15 1021 3 5 0.02 0.51
4:52 am 04:52 Cloudy with Light Rain 44 6.7 44 6.7 100 100 NW 6 9 30.15 1021 3 5 0.02 0.51
5:39 am 05:39 Cloudy with Mist and Fog 46 8 45 7 93 93 NNW 3 6 30.15 1021 3 5 N/A
5:47 am 05:47 Cloudy with Drizzle 46 8 45 7 93 93 NNW 3 6 30.15 1021 3 4 0.03 0.76
5:52 am 05:52 Cloudy with Drizzle 46 7.8 45 7.2 96 96 NNW 3 6 30.15 1021 3 4 0.03 0.76
6:28 am 06:28 Cloudy with Light Rain 45 7 45 7 100 100 W 3 6 30.15 1021 4 6 N/A
6:52 am 06:52 Cloudy with Rain 46 7.8 45 7.2 96 96 N N/A 30.15 1021 4 6 0.06 1.52
6:59 am 06:59 Cloudy with Rain 46 7.8 45 7.2 96 96 N N/A 30.15 1021 4 6 0.01 0.25
7:18 am 07:18 Cloudy with Light Rain 46 8 45 7 93 93 N 3 6 30.15 1021 6 10 N/A
7:26 am 07:26 Cloudy with Light Rain 46 7.8 45 7.2 96 96 VRB 3 6 30.15 1021 7 11 0.05 1.27
7:52 am 07:52 Cloudy with Light Rain 46 7.8 45 7.2 96 96 SW 3 6 30.14 1021 5 8 0.08 2.03
8:52 am 08:52 Cloudy with Light Rain 47 8.3 45 7.2 93 93 N N/A 30.14 1021 6 10 0.05 1.27
9:52 am 09:52 Cloudy with Rain 47 8.3 45 7.2 93 93 VRB 3 6 30.15 1021 3 5 0.08 2.03
10:52 am 10:52 Cloudy with Rain 47 8.3 45 7.2 93 93 SW 3 6 30.14 1021 3 5 0.15 3.81
11:09 am 11:09 Cloudy with Light Rain 47 8.3 45 7.2 93 93 W 3 6 30.12 1020 6 10 0.02 0.51
11:52 am 11:52 Cloudy with Heavy Rain 47 8.3 45 7.2 93 93 WSW 3 6 30.12 1020 3 5 0.05 1.27
11:57 am 11:57 Cloudy with Rain 47 8.3 45 7.2 93 93 SW 3 6 30.12 1020 2 3 0.03 0.76
12:24 pm 12:24 Cloudy with Light Rain 46 8 46 8 100 100 S 5 7 30.12 1020 3 5 N/A
12:36 pm 12:36 Cloudy with Light Rain 48 9 46 8 94 94 S 5 7 30.09 1019 7 11 N/A
12:52 pm 12:52 Cloudy with Light Rain 48 8.9 46 7.8 93 93 SSW 6 9 30.10 1019 7 11 0.12 3.05
1:14 pm 13:14 Cloudy with Rain 48 9 46 8 94 94 S 5 7 30.09 1019 3 4 N/A
1:34 pm 13:34 Cloudy with Light Rain 48 9 46 8 94 94 S 5 7 30.09 1019 4 6 N/A
1:52 pm 13:52 Cloudy with Light Rain 48 8.9 47 8.3 96 96 S 6 9 30.06 1018 4 6 0.08 2.03
2:52 pm 14:52 Cloudy with Light Rain 48 8.9 47 8.3 96 96 SE 6 9 30.03 1017 10 16 0.03 0.76
3:43 pm 15:43 Cloudy 48 8.9 46 7.8 93 93 S 9 15 30.06 1018 10 16 N/A
3:52 pm 15:52 Cloudy 48 8.9 46 7.8 93 93 SSW 9 15 30.06 1018 10 16 N/A
4:43 pm 16:43 Cloudy 48 8.9 46 7.8 93 93 VRB 6 9 30.06 1018 10 16 N/A
4:52 pm 16:52 Cloudy 48 8.9 46 7.8 93 93 SW 6 9 30.05 1018 10 16 N/A
5:00 pm 17:00 Cloudy 48 9 46 8 94 94 S 6 9 30.06 1018 10 16 N/A
5:52 pm 17:52 Cloudy 48 8.9 46 7.8 93 93 S 5 7 30.03 1017 10 16 N/A
6:52 pm 18:52 Cloudy 48 8.9 46 7.8 93 93 S 5 7 30.03 1017 10 16 N/A
7:52 pm 19:52 Cloudy 48 8.9 46 7.8 93 93 S 6 9 30.02 1017 10 16 N/A
8:52 pm 20:52 Cloudy 48 8.9 46 7.8 93 93 SSE 6 9 30.00 1016 10 16 N/A
9:47 pm 21:47 Cloudy 48 9 46 8 94 94 S 5 7 30.03 1017 7 11 N/A
9:52 pm 21:52 Cloudy with Mist and Fog 48 8.9 47 8.3 96 96 S 5 7 30.02 1017 6 10 N/A
10:08 pm 22:08 Cloudy with Mist and Fog 48 9 46 8 94 94 S 5 7 30.00 1016 3 4 N/A
10:20 pm 22:20 Cloudy with Mist and Fog 48 9 46 8 94 94 S 6 9 30.00 1016 2 3 N/A
10:49 pm 22:49 Mostly Cloudy with Mist and Fog 48 9 46 8 94 94 S 6 9 30.00 1016 1 1 N/A
10:52 pm 22:52 Mostly Cloudy with Mist and Fog 48 8.9 47 8.3 96 96 S 5 7 30.00 1016 1 1 N/A
11:04 pm 23:04 Mostly Cloudy with Fog 48 9 46 8 94 94 S 5 7 30.00 1016 1 1 N/A
11:52 pm 23:52 Mostly Cloudy with Fog 48 8.9 48 8.9 100 100 SSW 5 7 29.98 1015 0 0 N/A

Powered by AerisWeather